Greenville, SC

8:27 AM EST on January 17, 2017 (GMT -0500)
Donaldson Center

Weather History for KGYH - March, 2013

Change the Weather History Date:

Tuesday, March 12, 2013

  Actual Average (KGMU) Record (KGMU)
Temperature  
Mean Temperature 57 °F -  
Max Temperature 68 °F 59 °F 82 °F (2006)
Min Temperature 42 °F 40 °F 21 °F (1998)
Degree Days  
Heating Degree Days 8    
Growing Degree Days 7 (Base 50)    
Moisture  
Dew Point 48 °F    
Average Humidity 80    
Maximum Humidity 100    
Minimum Humidity 28    
Precipitation  
Precipitation 0.08 in - - ()
Sea Level Pressure  
Sea Level Pressure 29.85 in    
Wind  
Wind Speed 6 mph (SW)    
Max Wind Speed 12 mph    
Max Gust Speed 17 mph    
Visibility 8 miles    
Events Rain    
Averages and records for this station are not official NWS values.
T = Trace of Precipitation, MM = Missing Value Source: NWS Daily Summary

Daily Weather History Graph

Daily Weather History Graph

Search for Another Location

Airport or City:

Trip Planner

Search our weather history database for the weather conditions in past years. The results will help you decide how hot, cold, wet, or windy it might be!

Date:

Astronomy

Mar. 12, 2013 Rise Set
Actual Time 7:43 AM EDT 7:34 PM EDT
Civil Twilight 7:18 AM EDT 8:00 PM EDT
Nautical Twilight 6:49 AM EDT 8:29 PM EDT
Astronomical Twilight 6:20 AM EDT 8:58 PM EDT
Moon 7:53 AM EDT (3/12) 8:43 PM EDT (3/12)
Length of Visible Light 12h 41m
Length of Day
11h 51m
New Moon, 1% of the Moon is Illuminated
Mar 12
New Moon
Mar 19
First Quarter
Mar 27
Full
Apr 3
Last Quarter
Apr 10
New

Hourly Weather History & Observations

Time (EDT) Temp. Dew Point Humidity Pressure Visibility Wind Dir Wind Speed Gust Speed Precip Events Conditions
12:15 AM 55.4 °F 55.4 °F 100% 29.83 in 7.0 mi SE 3.5 mph - 0.01 in Rain Rain
12:35 AM 55.4 °F 55.4 °F 100% 29.82 in 5.0 mi SE 3.5 mph - 0.04 in Rain Light Rain
12:55 AM 55.4 °F 55.4 °F 100% 29.81 in 10.0 mi SSE 4.6 mph - 0.04 in   Drizzle
1:15 AM 55.4 °F 55.4 °F 100% 29.81 in 7.0 mi South 8.1 mph - 0.01 in Rain Light Rain
1:35 AM 55.4 °F 55.4 °F 100% 29.80 in 10.0 mi South 8.1 mph - 0.01 in   Light Drizzle
1:55 AM 55.4 °F 55.4 °F 100% 29.79 in 10.0 mi South 9.2 mph - 0.01 in   Overcast
2:15 AM 55.4 °F 55.4 °F 100% 29.79 in 7.0 mi South 9.2 mph - N/A   Drizzle
2:35 AM 55.4 °F 55.4 °F 100% 29.79 in 7.0 mi South 11.5 mph - 0.01 in   Drizzle
2:55 AM 57.2 °F 55.4 °F 94% 29.78 in 5.0 mi South 11.5 mph - 0.01 in   Drizzle
3:15 AM 57.2 °F 55.4 °F 94% 29.77 in 4.0 mi SSW 8.1 mph - N/A   Drizzle
3:35 AM 57.2 °F 55.4 °F 94% 29.76 in 4.0 mi SSW 11.5 mph 17.3 mph 0.01 in   Drizzle
3:55 AM 57.2 °F 55.4 °F 94% 29.76 in 4.0 mi SW 10.4 mph 17.3 mph 0.01 in   Light Drizzle
4:15 AM 57.2 °F 55.4 °F 94% 29.76 in 7.0 mi SW 9.2 mph - N/A Rain Light Rain
4:35 AM 57.2 °F 55.4 °F 94% 29.76 in 4.0 mi SSW 9.2 mph - N/A   Drizzle
4:55 AM 57.2 °F 55.4 °F 94% 29.76 in 3.0 mi SW 8.1 mph - N/A   Drizzle
5:15 AM 57.2 °F 57.2 °F 100% 29.76 in 4.0 mi SW 6.9 mph - 0.01 in   Drizzle
5:35 AM 57.2 °F 55.4 °F 94% 29.76 in 7.0 mi SW 6.9 mph - 0.01 in   Overcast
5:55 AM 57.2 °F 55.4 °F 94% 29.76 in 10.0 mi SW 6.9 mph - 0.01 in   Overcast
6:15 AM 57.2 °F 55.4 °F 94% 29.77 in 10.0 mi WSW 6.9 mph - N/A   Overcast
6:35 AM 55.4 °F 55.4 °F 100% 29.77 in 10.0 mi WSW 6.9 mph - N/A   Overcast
6:47 AM 57.2 °F 57.2 °F 100% 29.78 in 10.0 mi WSW 8.1 mph - N/A   Overcast
7:30 AM 55.4 °F 55.4 °F 100% 29.79 in 10.0 mi WSW 8.1 mph - N/A   Overcast
7:47 AM 55.4 °F 55.4 °F 100% 29.79 in 10.0 mi WSW 5.8 mph - N/A   Overcast
8:47 AM 53.6 °F 53.6 °F 100% 29.83 in 2.0 mi WSW 8.1 mph - N/A   Overcast
9:13 AM 53.6 °F 53.6 °F 100% 29.85 in 5.0 mi WSW 6.9 mph - N/A   Overcast
9:47 AM 51.8 °F 51.8 °F 100% 29.86 in 10.0 mi WSW 5.8 mph - N/A   Overcast
10:47 AM 51.8 °F 51.8 °F 100% 29.87 in 10.0 mi WSW 5.8 mph - N/A   Overcast
11:47 AM 53.6 °F 51.8 °F 94% 29.88 in 10.0 mi Calm Calm - N/A   Mostly Cloudy
12:47 PM 55.4 °F 53.6 °F 94% 29.88 in 10.0 mi SSW 4.6 mph - N/A   Mostly Cloudy
1:47 PM 60.8 °F 51.8 °F 72% 29.88 in 10.0 mi WSW 6.9 mph - N/A   Mostly Cloudy
2:47 PM 64.4 °F 46.4 °F 52% 29.87 in 10.0 mi Calm Calm - N/A   Scattered Clouds
3:47 PM 66.2 °F 46.4 °F 49% 29.85 in 10.0 mi SSW 3.5 mph - N/A   Partly Cloudy
5:47 PM 68.0 °F 37.4 °F 33% 29.85 in 10.0 mi WSW 6.9 mph - N/A   Clear
6:47 PM 66.2 °F 32.0 °F 28% 29.88 in 10.0 mi NE 5.8 mph - N/A   Clear
7:47 PM 60.8 °F 33.8 °F 36% 29.91 in 10.0 mi NNE 5.8 mph - N/A   Clear
8:47 PM 57.2 °F 30.2 °F 36% 29.94 in 10.0 mi NE 5.8 mph - N/A   Clear
9:15 PM 53.6 °F 32.0 °F 44% 29.96 in 10.0 mi Calm Calm - N/A   Clear
9:35 PM 51.8 °F 32.0 °F 47% 29.97 in 10.0 mi Calm Calm - N/A   Clear
9:55 PM 51.8 °F 32.0 °F 47% 29.98 in 10.0 mi Calm Calm - N/A   Clear
10:15 PM 50.0 °F 32.0 °F 50% 29.99 in 10.0 mi NNW 3.5 mph - N/A   Clear
10:35 PM 50.0 °F 32.0 °F 50% 29.99 in 10.0 mi NNW 3.5 mph - N/A   Clear
10:55 PM 50.0 °F 30.2 °F 47% 30.00 in 10.0 mi NNW 3.5 mph - N/A   Clear
11:35 PM 46.4 °F 32.0 °F 57% 30.01 in 10.0 mi Calm Calm - N/A   Clear
11:55 PM 42.8 °F 32.0 °F 66% 30.02 in 10.0 mi Calm Calm - N/A   Clear